This is the latest recevied weather packets stored in our database for station/object OK2ILA-3. If no packets are shown the sender has not sent any weather packets the latest 10 day(s).
| Time | Temp. | Humidity | Pressure | Rain* | Wind** | Luminosity | Snow |
|---|---|---|---|---|---|---|---|
| 1777813319 | 21.67° C | 53% | 4352 hPa | 0 mm | - | - | - |
| 1777812713 | 21.67° C | 100% | 71.5 hPa | 0 mm | - | - | - |
| 1777812110 | 21.67° C | 2% | 71.5 hPa | 0 mm | - | - | - |
| 1777811505 | 21.67° C | 51% | 12.2 hPa | 0 mm | - | - | - |
| 1777810291 | 21.67° C | 8% | 105.6 hPa | 0 mm | - | - | - |
| 1777809687 | 21.67° C | 100% | 105.6 hPa | 0 mm | - | - | - |
| 1777809082 | 21.11° C | 51% | 5738.8 hPa | 0 mm | - | - | - |
| 1777808476 | 21.67° C | 2% | 5738.8 hPa | 0 mm | - | - | - |
| 1777807265 | 21.11° C | 95% | 5738.8 hPa | 0 mm | - | - | - |
| 1777806659 | 21.67° C | 12% | 4506.1 hPa | 0 mm | - | - | - |
| 1777806052 | 21.67° C | 3% | 0.7 hPa | 0 mm | - | - | - |
| 1777805442 | 21.67° C | 77% | 0.7 hPa | 0 mm | - | - | - |
| 1777804227 | 21.11° C | 51% | 4352 hPa | 0 mm | - | - | - |
| 1777803618 | 21.11° C | 51% | 4352 hPa | 0 mm | - | - | - |
| 1777803015 | 20.56° C | 51% | 4352 hPa | 0 mm | - | - | - |
| 1777802412 | 20.56° C | 3% | 4352 hPa | 0 mm | - | - | - |
| 1777801804 | 20.56° C | 95% | 4352 hPa | 0 mm | - | - | - |
| 1777801200 | 21.11° C | 7% | 4352 hPa | 0 mm | - | - | - |
| 1777800594 | 20.56° C | 26% | - | 0 mm | - | - | - |
| 1777799985 | 21.67° C | - | - | 0 mm | - | - | - |
| 1777799858 | 21.67° C | - | - | 0 mm | - | - | - |
| 1777799490 | 21.11° C | 66% | 190.4 hPa | 0 mm | - | - | - |
| 1777798884 | 21.11° C | 66% | 0.7 hPa | 0 mm | - | - | - |
| 1777797673 | 20.56° C | 51% | 1104 hPa | 0 mm | - | - | - |
| 1777797068 | 20.56° C | 100% | 1104 hPa | 0 mm | - | - | - |
* Rain latest 24 hours (hover to see other rain measurements)
** Current wind speed in m/s (hover to see current wind gust speed)